Weather History for Calgary Springbank, AB

Change the Weather History Date:

Wednesday, October 31, 2012

  Actual Average Record
Temperature  
Mean Temperature 20 °F -  
Max Temperature 21 °F 34 °F 57 °F (2008)
Min Temperature 19 °F 14 °F -9 °F (2003)
Degree Days  
Heating Degree Days 45    
Moisture  
Dew Point 20 °F    
Average Humidity 95    
Maximum Humidity 100    
Minimum Humidity 90    
Precipitation  
Precipitation 0.01 in - - ()
Sea Level Pressure  
Sea Level Pressure 30.16 in    
Wind  
Wind Speed 10 mph ()    
Max Wind Speed 15 mph    
Max Gust Speed 20 mph    
Visibility 0.8 miles    
Events Fog , Snow    
Averages and records for this station are not official NWS values.
T = Trace of Precipitation, MM = Missing Value Source: Averaged Metar Reports

Daily Weather History Graph

Daily Weather History Graph

Search for Another Location

Airport:

Trip Planner

Search our weather history database for the weather conditions in past years. The results will help you decide how hot, cold, wet, or windy it might be!

Date:

Astronomy

Oct. 31, 2012 Rise Set
Actual Time 8:29 AM MDT 6:12 PM MDT
Civil Twilight 7:54 AM MDT 6:46 PM MDT
Nautical Twilight 7:15 AM MDT 7:25 PM MDT
Astronomical Twilight 6:36 AM MDT 8:04 PM MDT
Moon 7:12 PM MDT (10/31) 10:27 AM MDT (10/31)
Length of Visible Light 10h 52m
Length of Day
9h 42m
Full, 97% of the Moon is Illuminated
Oct 31
Full
Nov 6
Last Quarter
Nov 13
New
Nov 20
First Quarter
Nov 28
Full

Hourly Weather History & Observations

Time (MDT) Temp. Windchill Dew Point Humidity Pressure Visibility Wind Dir Wind Speed Gust Speed Precip Events Conditions
5:00 AM 21.2 °F 11.7 °F 21.2 °F 100% 30.25 in 0.5 mi SSE 8.1 mph - N/A Fog Light Freezing Fog
6:00 AM 21 °F - 21 °F 98% 30.25 in 0 mi SE 10.4 mph - - Fog Heavy Fog
6:00 AM 21.2 °F 10.1 °F 21.2 °F 100% 30.25 in 0.2 mi SE 10.4 mph - N/A Fog Light Freezing Fog
7:00 AM 21.2 °F 10.1 °F 21.2 °F 100% 30.24 in 0.2 mi SE 10.4 mph - N/A Fog Light Freezing Fog
8:00 AM 21.2 °F 10.9 °F 21.2 °F 100% 30.23 in 0.4 mi SE 9.2 mph - N/A Fog Light Freezing Fog
9:00 AM 21.2 °F 8.9 °F 19.4 °F 93% 30.24 in 0.2 mi SE 12.7 mph - N/A Fog Light Freezing Fog
10:00 AM 21.2 °F 8.9 °F 19.4 °F 93% 30.23 in 0.5 mi SE 12.7 mph 19.6 mph N/A Fog Light Freezing Fog
10:04 AM 21.2 °F 8.3 °F 19.4 °F 93% 30.23 in 0.5 mi SE 13.8 mph - N/A Fog , Snow Light Snow
10:26 AM 21.2 °F 12.6 °F 19.4 °F 93% 30.22 in 1.0 mi East 6.9 mph - N/A Snow Light Snow
11:00 AM 21.2 °F 10.9 °F 19.4 °F 93% 30.22 in 3.0 mi SE 9.2 mph - N/A Snow Light Snow
12:00 PM 21 °F - 19 °F 90% 30.22 in 4 mi Calm Calm - - Snow Light Snow
12:00 PM 21.2 °F 9.5 °F 19.4 °F 93% 30.22 in 4.0 mi North 11.5 mph - N/A Snow Light Snow
12:51 PM 21.2 °F 8.9 °F 19.4 °F 93% 30.19 in 1.5 mi SE 12.7 mph - N/A   Overcast
1:00 PM 21.2 °F 8.9 °F 19.4 °F 93% 30.19 in 1.0 mi SE 12.7 mph - N/A Snow Light Snow
1:21 PM 21.2 °F 8.3 °F 19.4 °F 93% 30.18 in 0.5 mi SE 13.8 mph - N/A Fog Light Freezing Fog
2:00 PM 21.2 °F 7.8 °F 19.4 °F 93% 30.16 in 0.5 mi SE 15.0 mph - N/A   Mist
3:00 PM 21.2 °F 10.1 °F 19.4 °F 93% 30.14 in 0.2 mi SE 10.4 mph 19.6 mph N/A   Mist
3:35 PM 21.2 °F 7.8 °F 19.4 °F 93% 30.13 in 0.8 mi SE 15.0 mph - N/A   Mist
4:00 PM 21.2 °F 8.9 °F 19.4 °F 93% 30.13 in 0.8 mi SE 12.7 mph - N/A   Mist
5:00 PM 21.2 °F 8.9 °F 19.4 °F 93% 30.12 in 0.2 mi SE 12.7 mph 18.4 mph N/A   Mist
5:26 PM 21.2 °F 8.9 °F 19.4 °F 93% 30.11 in 0.1 mi SE 12.7 mph - N/A   Mist
6:00 PM 21 °F - 19 °F 90% 30.10 in 0 mi SE 12.7 mph - - Fog Heavy Fog
6:00 PM 21.2 °F 8.9 °F 19.4 °F 93% 30.10 in 0.1 mi SE 12.7 mph - N/A Fog Light Freezing Fog
7:00 PM 19.4 °F 6.0 °F 19.4 °F 100% 30.09 in 0.1 mi SE 13.8 mph - N/A Fog Light Freezing Fog
8:00 PM 21.2 °F 8.3 °F 19.4 °F 93% 30.08 in 0.1 mi SE 13.8 mph - N/A Fog Light Freezing Fog
9:00 PM 21.2 °F 8.9 °F 19.4 °F 93% 30.06 in 0.1 mi SE 12.7 mph - N/A Fog Light Freezing Fog
10:00 PM 21.2 °F 9.5 °F 21.2 °F 100% 29.84 in 0.1 mi SE 11.5 mph - N/A Fog Ice Crystals